Location: Cherry Grove
(44.1968°N, 92.8624°W)
Time: 08:38:00
(UTC-06:00)

Tiangong 1 - Visible Passes

Search period start: 20 January 2018 00:00
Search period end: 30 January 2018 00:00
Orbit: 262 x 287 km, 42.8° (Epoch: 20 January)

Date Brightness Start Highest point End Pass type
(mag) Time Alt. Az. Time Alt. Az. Time Alt. Az.
20 Jan 1.3 18:28:59 10° W 18:31:23 44° SSW 18:32:00 35° SSE visible
21 Jan 1.9 18:28:31 10° W 18:30:49 33° SSW 18:31:46 23° SSE visible
22 Jan 2.6 18:28:01 10° WSW 18:30:05 23° SSW 18:31:33 14° SSE visible
23 Jan 3.3 18:27:35 10° WSW 18:29:10 15° SSW 18:30:45 10° SSE visible
